Location: Huntsville
(41.2590°N, 111.7678°W)
Time: 05:01:51
(UTC+00:00)

Transit 2A Rocket - All Passes

Search period start: 25 September 2022 00:00
Search period end: 05 October 2022 00:00
Orbit: 593 x 907 km, 66.7° (Epoch: 24 September)

Date Brightness Start Highest point End Pass type
(mag) Time Alt. Az. Time Alt. Az. Time Alt. Az.
25 Sep - 01:31:24 10° WNW 01:34:21 16° WSW 01:37:26 10° SW daylight
25 Sep - 14:22:44 10° S 14:26:53 43° ESE 14:30:57 10° NE daylight
25 Sep - 16:06:21 10° W 16:09:33 20° NW 16:12:47 10° N daylight
25 Sep - 23:04:49 10° NNW 23:09:15 37° NE 23:14:02 10° ESE daylight
26 Sep - 00:47:30 10° NW 00:51:40 28° WSW 00:56:08 10° S daylight
26 Sep - 13:40:46 10° SSE 13:44:10 22° ESE 13:47:32 10° ENE daylight
26 Sep - 15:22:30 10° WSW 15:26:27 34° NW 15:30:24 10° NNE daylight
26 Sep - 22:22:23 10° N 22:26:10 23° NE 22:30:11 10° E daylight
27 Sep - 00:04:13 10° NW 00:08:54 51° WSW 00:14:01 10° S daylight
27 Sep - 13:00:06 10° SE 13:01:33 11° ESE 13:02:59 10° E daylight
27 Sep - 14:39:10 10° SW 14:43:28 64° WNW 14:47:45 10° NNE daylight
27 Sep - 21:40:20 10° N 21:42:57 14° NE 21:45:41 10° ENE daylight
27 Sep - 23:21:13 10° NNW 23:26:03 90° W 23:31:22 10° SSE daylight
28 Sep - 01:06:50 10° W 01:08:00 11° WSW 01:09:11 10° WSW daylight
28 Sep - 13:56:17 10° SSW 14:00:36 66° ESE 14:04:52 10° NE daylight
28 Sep - 15:41:04 10° W 15:43:33 15° NW 15:46:03 10° N daylight
28 Sep - 22:38:26 10° NNW 22:43:08 52° ENE 22:48:15 10° SE daylight
29 Sep - 00:21:47 10° WNW 00:25:22 20° WSW 00:29:11 10° SSW daylight
29 Sep - 13:13:56 10° S 13:17:50 33° ESE 13:21:42 10° NE daylight
29 Sep - 14:56:49 10° WSW 15:00:21 24° NW 15:03:56 10° N daylight
29 Sep - 21:55:52 10° N 22:00:07 31° NE 22:04:41 10° ESE daylight
29 Sep - 23:38:11 10° NW 23:42:39 36° WSW 23:47:29 10° S daylight
30 Sep - 12:32:18 10° SSE 12:35:10 17° ESE 12:38:01 10° ENE visible
30 Sep - 14:13:10 10° SW 14:17:18 43° NW 14:21:26 10° NNE daylight
30 Sep - 21:13:32 10° N 21:16:58 19° NE 21:20:37 10° E daylight
30 Sep - 22:55:02 10° NW 22:59:51 64° WSW 23:05:07 10° SSE daylight
01 Oct - 13:30:02 10° SSW 13:34:21 83° WNW 13:38:41 10° NNE daylight
01 Oct - 15:16:21 10° WNW 15:17:36 11° NW 15:18:51 10° NNW daylight
01 Oct - 20:31:46 10° NNE 20:33:42 12° NE 20:35:43 10° ENE daylight
01 Oct - 22:12:07 10° NNW 22:16:58 73° ENE 22:22:17 10° SE daylight
01 Oct - 23:56:25 10° WNW 23:59:02 14° WSW 00:01:45 10° SW daylight
02 Oct - 12:47:20 10° S 12:51:31 50° ESE 12:55:42 10° NE visible
02 Oct - 14:31:20 10° W 14:34:19 18° NW 14:37:20 10° N daylight
02 Oct - 21:29:24 10° NNW 21:34:01 42° NE 21:39:00 10° SE daylight
02 Oct - 23:12:19 10° NW 23:16:23 25° WSW 23:20:42 10° SSW daylight
03 Oct - 12:05:13 10° SSE 12:08:48 26° ESE 12:12:22 10° NE visible
03 Oct - 13:47:21 10° WSW 13:51:10 30° NW 13:55:01 10° N daylight
03 Oct - 20:46:54 10° N 20:50:57 26° NE 20:55:15 10° ESE daylight
03 Oct - 22:28:55 10° NW 22:33:37 45° WSW 22:38:43 10° S daylight
04 Oct - 11:24:05 10° SE 11:26:10 13° ESE 11:28:15 10° ENE visible
04 Oct - 13:03:55 10° SW 13:08:09 55° WNW 13:12:24 10° NNE daylight
04 Oct - 20:04:43 10° N 20:07:45 16° NE 20:10:56 10° E daylight
04 Oct - 21:45:52 10° NNW 21:50:47 80° WSW 21:56:09 10° SSE daylight
